World > North America > United States > Texas > Mission   City of Mission, Texas

Mission, TX Hourly Weather Updates

Feedback E-mail the Weather

Quick Clicks

Mission, TX Weather Maps

°F °C°F °C
Mission Weather Map
UTC Time: 4/16/2024, 21:06
Your Time:

Mission, TX Regional Weather

Expires:202404162200;;860706
ASUS44 KSJT 162105
RWRSJT
WEST CENTRAL TEXAS REGIONAL WEATHER ROUNDUP
NATIONAL WEATHER SERVICE SAN ANGELO TX
400 PM CDT TUE APR 16 2024

NOTE: "FAIR" INDICATES FEW OR NO CLOUDS BELOW 12,000 FEET WITH NO
SIGNIFICANT WEATHER AND/OR OBSTRUCTIONS TO VISIBILITY.


TXZ229-232-234-239-242-243-245-247-249-250-
253-255-257-343-347-443-162200-
TEXAS COASTAL BEND, RIO GRANDE PLAINS DEEP SOUTH TEXAS
  
CITY           SKY/WX    TMP DP  RH WIND       PRES   REMARKS
VICTORIA       CLOUDY    80  72  76 SE15G25   29.84F TC  27           
BEEVILLE       PTSUNNY   82  69  65 SE13      29.81  TC  28           
ROCKPORT       MOSUNNY   81  73  76 SE20G29   29.81F TC  27           
PORT ARANSAS   PTSUNNY   79  72  80 E16       29.84F TC  26           
PORT LAVACA    CLOUDY    81  74  81 SE17G24   29.85F TC  27           
CORPUS CHRISTI CLOUDY    85  74  69 SE21G26   29.81F TC  29           
KINGSVILLE NAS CLOUDY    84  74  71 SE13G24   29.79  TC  29           
COTULLA        CLOUDY    83  71  67 N5        29.81F TC  28           
LAREDO         CLOUDY    89  70  53 N12       29.78F TC  32           
BROWNSVILLE    MOSUNNY   89  73  59 SE20G26   29.78F TC  32           
PORT ISABEL    CLOUDY    81  73  76 E17G25    29.79S TC  27           
HEBBRONVILLE   PTSUNNY   89  67  47 CALM      29.80F TC  32           
MCALLEN        CLOUDY    92  73  53 E16       29.75F TC  33           
WESLACO        NOT AVBL                                          

SKY/WX - Weather  TMP - Temperature  DP - Dew Point  RH - Humidity
WIND - Wind Direction/Speed PRES - Barometric Pressure VSB - Visibility
WCI - Wind Chill Index E13G22 Wind - East Wind 13 mph/Gusts of 22 mph

Trending Headlines

Trending Entertainment Headlines

Mission Radar Loop

Use the map search tool if you want to place a location marker on the radar map...

Mission Quick Facts

National Two Day Weather Forecast


E-mail the Mission Weather Forecast

Voice your opinion or tell us about page issues...